Flag for US Virgin Islands Weather past 2 weeks in Charlotte Amalie, US Virgin Islands

Now
82 °F

Passing clouds.


Feels Like: 90 °F
Forecast: N/A
Wind: 10 mph from South

Location: Cyril E. King International Airport

Current Time: Apr 27, 2015 at 7:12:56 PM

Latest Report: Apr 27, 2015 at 6:53 PM


Visibility: 10 mi

Pressure: 29.92 "Hg

Humidity: 85%

Dew point: 77 °F

Location of Charlotte AmalieLocation

Historic Weather in Charlotte Amalie — Graph

°F

Charlotte Amalie temperature yesterday

Maximum temperature yesterday: 85 °F (at 11:53 AM)
Minimum temperature yesterday: 80 °F (at 12:35 AM)
Average temperature yesterday: 82 °F

Past Weeks' High & Low Weather Summary

 TemperatureHumidityPressure
High86 °F (Apr 15, 1:53 PM)91% (Apr 18, 4:53 AM)30.13 "Hg (Apr 18, 4:53 AM)
Low74 °F (Apr 14, 5:53 AM)55% (Apr 15, 1:53 PM)29.89 "Hg (Apr 27, 4:32 PM)
Average80 °F75%30.00 "Hg
* Reported Apr 12 8:53 PM — Apr 27 5:07 PM, Charlotte Amalie, Weather by CustomWeather, © 2015

Note: Actual official high and low records may vary slightly from our data, if they occured in-between our weather recording intervals... More about our weather records

Advertising

Charlotte Amalie weather history for previous 24 hours

 ConditionsComfort  
Time TempWeatherWind HumidityBarometerVisibility
5:07 PM
Mon, Apr 27
83 °FBroken clouds.13 mph82%29.90 "Hg10 mi
4:53 PM84 °FMostly cloudy.9 mph80%29.90 "Hg10 mi
4:32 PM83 °FMostly cloudy.10 mph79%29.89 "Hg10 mi
3:53 PM83 °FBroken clouds.12 mph79%29.89 "Hg10 mi
2:53 PM85 °FBroken clouds.15 mph75%29.90 "Hg10 mi
2:45 PM84 °FScattered clouds.15 mph77%29.90 "Hg10 mi
1:53 PM85 °FPassing clouds.12 mph75%29.91 "Hg10 mi
12:53 PM85 °FScattered clouds.16 mph75%29.94 "Hg10 mi
11:53 AM84 °FSunny.15 mph74%29.95 "Hg10 mi
10:53 AM84 °FSunny.15 mph77%29.97 "Hg10 mi
10:22 AM84 °FScattered clouds.14 mph74%29.97 "Hg10 mi
10:11 AM83 °FBroken clouds.14 mph77%29.98 "Hg10 mi
9:53 AM83 °FPassing clouds.14 mph77%29.98 "Hg10 mi
8:53 AM82 °FPassing clouds.13 mph79%29.98 "Hg10 mi
7:53 AM82 °FPassing clouds.13 mph77%29.96 "Hg10 mi
6:53 AM80 °FPassing clouds.12 mph81%29.94 "Hg10 mi
5:53 AM80 °FPassing clouds.10 mph81%29.93 "Hg10 mi
4:53 AM80 °FClear.10 mph81%29.92 "Hg10 mi
3:53 AM80 °FClear.10 mph81%29.91 "Hg10 mi
3:31 AM80 °FPassing clouds.9 mph81%29.91 "Hg10 mi
3:20 AM80 °FPassing clouds.10 mph81%29.90 "Hg10 mi
2:53 AM80 °FClear.10 mph81%29.90 "Hg10 mi
1:53 AM80 °FClear.10 mph81%29.91 "Hg10 mi
12:53 AM80 °FPassing clouds.9 mph81%29.93 "Hg10 mi
11:53 PM
Sun, Apr 26
80 °FClear.9 mph81%29.96 "Hg10 mi
10:53 PM81 °FClear.8 mph79%29.97 "Hg10 mi
9:53 PM81 °FClear.10 mph82%29.97 "Hg10 mi
8:53 PM81 °FClear.10 mph79%29.96 "Hg10 mi
7:53 PM81 °FClear.12 mph82%29.96 "Hg10 mi
Weather by CustomWeather, © 2015

See weather overviewHow to use our weather pages